Wind_Speed
7 7 8 9 9 9 9 9 9 10 10 10 10 10 10 10 10 10 10 10 9 9 8 8 8 9 9 8 8 8 7 7 7 7 8 8 8 8 7 7 7 8 8
5 6 7 8 8 9 9 9 9 10 10 10 10 9 8 9 9 9 9 9 9 8 8 8 8 8 8 8 8 7 7 7 7 7 7 7 7 7 7 7 8 8 7
5 6 7 7 8 9 9 9 9 9 10 9 8 8 8 8 8 8 9 9 8 8 8 8 7 8 7 7 7 7 7 6 7 7 7 7 6 6 7 7 7 7 7
6 7 7 8 8 8 9 9 9 9 9 8 8 7 7 7 8 8 8 7 8 8 8 7 7 7 7 7 7 6 6 6 6 6 6 6 6 6 6 6 6 6 7
6 7 7 8 8 8 9 9 9 9 9 8 8 7 7 7 8 8 7 7 7 7 7 7 6 6 6 6 6 6 6 6 5 5 5 5 5 5 5 5 5 6 6
6 7 7 7 8 8 8 9 9 9 9 8 8 8 8 7 7 6 6 7 7 7 6 6 6 5 5 5 5 5 5 5 5 5 5 4 4 4 4 4 4 4 4
7 8 7 7 7 8 9 9 9 8 8 8 8 8 7 6 6 6 6 6 6 6 6 6 6 5 4 4 4 4 4 4 4 4 4 4 4 4 3 3 2 3 3
8 8 8 8 7 8 8 8 8 8 8 7 8 6 6 6 6 5 5 5 5 5 5 5 5 4 4 3 4 4 4 3 3 3 3 3 3 3 2 2 2 1 1
7 7 7 7 7 7 7 7 7 7 7 7 6 6 6 5 5 4 4 4 4 4 4 4 4 3 3 3 3 3 3 3 2 3 2 2 2 2 1 1 0 0 1
7 7 7 7 7 7 7 8 8 7 7 7 7 6 6 5 5 4 4 4 3 2 2 2 2 2 2 2 2 2 2 1 1 1 1 1 1 1 1 1 1 1 1
7 7 7 7 7 8 8 8 8 8 7 7 6 6 5 5 4 4 3 4 3 2 1 1 1 2 1 1 1 1 1 1 0 1 1 1 1 1 1 1 1 1 2
7 7 7 7 7 8 8 8 8 8 7 6 6 6 5 5 4 3 3 3 3 2 2 1 1 1 1 1 0 1 1 1 1 1 1 2 2 2 1 1 2 2 2
7 7 7 7 7 7 7 7 8 8 8 7 7 6 5 5 4 4 3 2 2 2 1 1 1 1 0 1 1 1 1 2 2 2 2 2 2 2 3 2 2 3 3
7 7 6 6 6 7 6 7 6 7 7 7 6 6 6 5 4 3 2 2 2 1 1 1 1 0 1 1 1 1 2 2 2 2 2 3 3 3 3 4 4 4 5
7 7 7 6 6 6 7 7 7 7 6 6 6 6 6 5 4 3 2 1 1 1 0 0 1 1 2 2 2 3 2 2 3 3 3 4 4 4 5 5 5 5 6
7 6 6 6 5 6 6 6 7 7 6 6 6 6 5 4 3 2 1 1 0 0 0 1 2 2 2 3 3 3 3 4 4 4 5 5 5 5 5 6 6 6 7
6 6 5 5 5 5 5 6 6 6 6 6 6 6 4 3 2 1 1 0 0 0 1 2 2 3 4 4 4 4 4 5 5 6 6 5 5 6 6 6 7 7 7
5 5 4 4 4 5 5 5 5 6 6 6 6 5 4 3 2 1 1 0 1 1 2 2 3 3 4 4 4 5 5 6 6 6 6 6 6 6 7 7 7 8 8
4 4 3 3 4 4 4 4 5 5 6 6 5 4 3 3 2 1 0 1 1 2 3 4 4 4 4 5 5 5 5 5 5 5 6 6 6 7 7 8 8 8 8
4 3 3 3 4 4 4 4 3 3 4 4 4 4 3 2 1 0 1 2 2 3 4 5 5 5 5 5 5 5 5 5 5 5 5 6 7 7 7 8 8 8 8
4 3 2 3 3 3 3 3 3 3 3 3 3 3 3 2 1 1 2 2 3 4 4 5 4 4 5 5 5 6 6 6 5 5 6 6 6 7 7 8 8 8 8
3 2 1 1 2 2 2 2 3 3 3 3 4 4 3 2 2 2 3 3 4 5 5 6 6 6 5 6 6 6 6 7 6 6 6 7 7 8 8 8 8 8 8
2 2 1 0 1 1 2 2 3 3 4 3 4 4 4 3 3 3 4 5 6 6 6 6 7 7 6 6 7 7 7 7 7 7 8 8 8 9 9 9 9 9 10
3 2 2 1 0 1 1 2 3 4 4 5 5 5 5 5 5 5 6 7 7 7 7 7 8 8 8 8 9 9 9 9 8 9 9 9 9 9 10 10 11 12 12
4 5 4 3 2 2 3 3 4 5 5 6 6 6 6 6 6 7 7 8 8 8 8 8 9 9 10 10 11 11 10 10 10 10 10 10 10 11 11 11 11 12 13
5 6 6 5 5 5 5 5 5 5 6 6 7 7 7 7 8 8 9 9 9 10 10 10 10 11 11 11 11 11 12 12 11 11 11 11 12 12 12 13 13 13 14
Wind_Direction
105 112 119 118 120 122 118 115 114 115 113 112 108 107 105 107 107 105 101 99 101 101 103 109 111 110 108 109 110 110 110 108 106 103 100 98 99 100 99 99 100 100 101
110 120 121 119 118 119 116 114 113 115 113 111 109 109 105 107 107 105 100 100 101 101 102 103 107 109 109 110 110 108 107 109 109 105 102 99 99 99 100 98 100 101 101
115 119 125 124 125 123 119 116 118 118 119 116 114 112 110 109 109 106 103 104 102 104 104 103 105 109 110 111 107 104 101 104 109 104 100 97 99 100 101 101 100 100 99
112 120 128 127 125 125 125 124 123 121 119 120 118 119 118 115 111 109 104 102 101 103 103 103 102 108 107 108 107 104 102 101 104 105 104 100 102 107 105 102 100 99 98
107 118 126 125 126 127 128 127 122 120 119 120 120 122 120 118 113 109 107 104 104 103 102 103 103 104 105 111 111 107 107 106 108 106 109 106 105 109 110 108 106 106 102
109 117 120 121 122 125 133 132 124 120 119 120 124 126 123 116 113 114 114 111 108 103 100 105 106 104 105 109 115 112 110 115 115 109 108 107 112 116 113 110 107 108 105
110 111 108 110 118 128 132 134 129 126 124 124 125 126 128 121 117 115 118 117 110 105 103 102 100 102 105 110 108 104 105 110 111 109 106 106 113 120 120 117 108 102 103
105 100 99 107 113 122 132 136 135 132 129 132 132 128 125 123 118 116 124 120 112 111 113 109 104 99 101 112 110 104 105 106 112 110 106 102 112 117 114 112 106 106 113
106 105 103 104 112 116 128 136 141 136 135 135 130 130 126 121 124 125 128 125 120 113 107 107 100 91 97 114 115 112 119 115 115 112 109 104 111 126 130 139 142 163 221
104 105 104 108 114 119 123 131 139 145 142 137 131 131 127 127 128 127 130 125 116 100 96 97 87 78 87 97 108 113 120 123 132 125 114 106 124 176 196 256 267 254 292
99 101 103 110 115 118 122 130 137 146 143 137 135 134 133 128 125 125 119 117 109 89 78 94 88 70 89 95 89 153 166 170 236 261 242 226 232 242 254 300 309 299 318
101 100 104 113 119 117 119 131 140 145 143 143 138 134 137 133 125 124 115 112 115 113 103 111 107 92 66 36 356 265 245 243 260 275 262 243 237 243 269 308 307 301 312
92 98 106 112 122 124 121 129 138 137 137 139 135 138 140 136 130 124 120 115 121 116 124 109 91 116 14 339 329 293 274 262 274 290 290 263 253 257 268 280 294 300 304
90 97 105 106 116 126 131 130 131 135 138 139 135 137 139 137 125 114 117 119 129 108 76 88 102 260 272 298 309 298 285 276 288 297 281 277 276 278 274 279 283 291 298
87 94 96 99 115 123 133 133 135 136 140 144 139 141 146 144 131 120 121 124 111 98 119 37 360 310 304 308 301 302 299 290 303 300 289 285 285 283 276 278 283 288 297
76 84 89 93 115 129 134 138 138 141 148 154 152 151 148 141 126 106 114 131 87 53 253 301 309 309 301 301 295 295 297 294 300 298 290 284 282 284 284 282 283 287 293
71 80 86 94 107 123 135 146 147 145 147 155 155 152 149 141 132 108 95 180 280 357 333 324 314 319 310 305 299 296 299 298 293 294 287 279 283 287 288 286 282 284 289
66 78 83 92 101 118 130 146 147 145 141 149 155 154 150 145 134 111 75 353 313 318 329 334 330 326 316 309 312 307 303 299 301 296 285 278 283 289 289 286 283 282 284
55 68 77 90 99 116 124 136 140 144 147 149 150 145 143 146 141 122 79 303 293 300 309 314 312 321 316 313 316 320 314 308 297 298 294 283 281 288 293 289 283 285 287
39 48 67 77 90 108 118 130 136 146 152 154 152 150 143 144 155 161 349 340 319 312 311 314 311 312 310 308 311 321 324 317 307 299 299 292 285 288 294 294 292 290 288
25 34 59 77 88 103 116 127 140 157 160 162 167 165 159 165 188 262 308 313 311 312 316 316 315 308 306 305 305 310 319 319 310 298 295 294 292 293 294 298 300 296 292
7 12 46 86 95 109 127 142 144 160 169 181 191 193 194 201 229 265 295 306 311 311 308 305 307 303 300 299 300 303 305 307 302 294 292 292 291 292 296 298 299 298 297
324 328 311 23 110 128 149 166 171 172 177 192 209 213 218 236 252 277 287 295 301 303 302 302 297 297 297 296 294 293 294 296 295 295 293 290 290 291 292 291 290 291 294
275 272 287 279 273 208 191 193 195 199 201 209 219 223 239 253 264 279 288 291 292 296 298 299 293 291 288 288 290 291 292 293 293 292 291 291 289 288 289 288 290 291 292
265 259 256 251 246 245 244 229 220 214 218 226 233 242 253 260 267 276 286 289 291 295 296 292 288 287 285 285 287 288 289 290 289 289 290 289 289 289 290 287 289 289 288
263 258 254 254 252 252 248 240 238 233 235 242 247 250 256 264 270 274 281 285 288 291 294 289 286 287 286 284 285 287 288 288 286 287 287 287 287 287 286 286 287 288 287
Height
5879 5879 5879 5879 5880 5881 5882 5884 5885 5885 5887 5888 5889 5890 5890 5891 5892 5893 5893 5894 5895 5896 5896 5896 5897 5897 5898 5899 5899 5900 5900 5900 5901 5901 5901 5901 5902 5901 5902 5901 5902 5902 5903
5880 5880 5880 5881 5882 5883 5884 5885 5886 5887 5888 5889 5890 5891 5892 5893 5893 5894 5895 5896 5896 5897 5898 5898 5899 5899 5900 5900 5900 5901 5901 5901 5902 5902 5902 5903 5903 5903 5903 5903 5903 5903 5904
5880 5880 5881 5882 5883 5884 5885 5886 5887 5888 5890 5891 5892 5893 5894 5894 5895 5896 5896 5897 5898 5898 5899 5900 5900 5900 5901 5901 5902 5902 5902 5903 5903 5903 5904 5904 5904 5904 5904 5905 5905 5905 5905
5880 5881 5882 5883 5884 5885 5886 5887 5888 5889 5891 5892 5893 5894 5895 5896 5896 5897 5898 5899 5899 5900 5900 5901 5901 5902 5902 5902 5903 5903 5903 5904 5904 5904 5905 5905 5905 5905 5905 5905 5905 5906 5906
5881 5882 5882 5884 5885 5886 5887 5888 5889 5890 5891 5893 5894 5895 5896 5897 5898 5899 5899 5900 5900 5901 5901 5902 5903 5903 5903 5904 5904 5904 5904 5904 5905 5905 5906 5906 5906 5906 5906 5907 5907 5907 5907
5883 5883 5884 5885 5886 5887 5888 5889 5890 5891 5893 5894 5895 5896 5897 5898 5899 5900 5900 5901 5901 5902 5903 5903 5903 5904 5904 5905 5905 5905 5905 5905 5906 5906 5906 5907 5907 5907 5907 5908 5908 5908 5908
5883 5884 5885 5886 5887 5887 5888 5890 5891 5892 5893 5895 5896 5897 5898 5899 5900 5901 5901 5902 5902 5903 5903 5904 5904 5905 5905 5905 5906 5906 5906 5906 5907 5907 5907 5907 5907 5908 5908 5908 5909 5909 5909
5884 5885 5886 5887 5888 5888 5889 5890 5892 5893 5894 5895 5897 5898 5899 5900 5901 5901 5902 5902 5903 5904 5904 5904 5905 5905 5906 5906 5906 5906 5907 5907 5907 5908 5908 5908 5908 5908 5909 5909 5909 5909 5909
5886 5887 5887 5888 5889 5889 5890 5891 5892 5894 5895 5896 5897 5899 5900 5901 5901 5902 5903 5903 5904 5904 5905 5905 5905 5906 5906 5906 5907 5907 5907 5907 5908 5908 5908 5908 5908 5909 5909 5909 5909 5909 5909
5888 5888 5889 5889 5890 5891 5891 5892 5893 5894 5896 5897 5898 5899 5900 5901 5902 5903 5903 5904 5904 5905 5905 5906 5906 5906 5907 5907 5907 5907 5907 5908 5908 5908 5908 5908 5909 5909 5909 5909 5909 5909 5909
5889 5889 5890 5890 5891 5891 5892 5892 5894 5895 5896 5898 5899 5900 5901 5902 5903 5903 5904 5904 5905 5905 5905 5906 5906 5907 5907 5907 5907 5907 5908 5908 5908 5908 5908 5909 5909 5909 5909 5909 5909 5909 5909
5890 5891 5891 5891 5892 5893 5893 5893 5894 5895 5897 5899 5900 5901 5902 5903 5903 5904 5904 5905 5905 5905 5906 5906 5906 5907 5907 5907 5908 5908 5908 5908 5908 5908 5908 5909 5909 5909 5909 5909 5909 5909 5909
5892 5892 5892 5892 5893 5893 5894 5895 5895 5896 5898 5899 5900 5901 5902 5903 5904 5904 5905 5905 5905 5906 5906 5906 5907 5907 5907 5908 5908 5908 5908 5908 5908 5908 5908 5908 5909 5909 5909 5909 5909 5909 5909
5893 5893 5894 5894 5894 5894 5895 5896 5896 5897 5899 5900 5901 5902 5903 5904 5904 5905 5905 5906 5906 5906 5906 5906 5907 5907 5907 5907 5907 5907 5907 5907 5908 5908 5908 5908 5908 5908 5908 5908 5908 5908 5908
5895 5895 5895 5895 5895 5895 5896 5897 5897 5898 5899 5900 5901 5902 5903 5904 5905 5905 5906 5906 5906 5906 5907 5907 5907 5907 5907 5907 5907 5907 5907 5907 5907 5907 5907 5908 5908 5908 5908 5908 5907 5907 5907
5896 5896 5896 5896 5896 5896 5897 5898 5898 5899 5900 5901 5902 5903 5904 5904 5905 5906 5906 5906 5906 5907 5907 5907 5907 5907 5907 5907 5907 5907 5906 5906 5906 5906 5906 5906 5907 5907 5907 5906 5906 5906 5906
5898 5897 5897 5897 5897 5897 5898 5898 5899 5900 5900 5901 5902 5903 5904 5905 5905 5906 5906 5907 5907 5907 5907 5907 5907 5907 5907 5906 5906 5906 5906 5906 5906 5905 5905 5905 5906 5906 5906 5905 5905 5905 5905
5899 5898 5898 5898 5898 5898 5898 5899 5900 5900 5901 5902 5903 5904 5904 5905 5905 5906 5906 5907 5907 5907 5907 5907 5907 5906 5906 5906 5905 5905 5905 5905 5904 5904 5904 5904 5904 5904 5904 5904 5904 5903 5903
5900 5899 5899 5899 5899 5899 5899 5900 5901 5901 5902 5903 5903 5904 5905 5905 5906 5906 5907 5907 5907 5907 5907 5906 5906 5906 5905 5905 5904 5904 5904 5903 5903 5903 5903 5903 5903 5903 5903 5902 5902 5902 5901
5901 5900 5900 5900 5899 5899 5900 5900 5901 5902 5902 5903 5904 5904 5905 5905 5906 5906 5907 5907 5907 5906 5906 5906 5905 5905 5904 5904 5904 5903 5903 5902 5902 5902 5902 5902 5902 5902 5901 5901 5901 5900 5900
5901 5901 5901 5900 5900 5900 5900 5901 5901 5902 5903 5903 5904 5904 5905 5906 5906 5906 5907 5906 5906 5906 5905 5905 5904 5904 5904 5903 5903 5903 5902 5902 5901 5901 5901 5901 5901 5900 5900 5899 5899 5898 5898
5901 5901 5901 5901 5901 5900 5900 5901 5901 5902 5903 5903 5904 5904 5905 5905 5906 5906 5906 5906 5906 5905 5904 5904 5903 5903 5903 5902 5902 5902 5901 5901 5900 5900 5900 5899 5899 5899 5898 5898 5897 5897 5896
5900 5900 5900 5901 5901 5900 5900 5901 5901 5902 5902 5903 5903 5904 5905 5905 5905 5905 5905 5905 5904 5904 5903 5902 5902 5902 5901 5901 5901 5901 5900 5900 5899 5899 5898 5897 5897 5897 5896 5896 5895 5895 5894
5900 5900 5900 5900 5900 5900 5900 5900 5901 5901 5902 5902 5903 5903 5904 5904 5904 5904 5904 5903 5903 5902 5901 5901 5900 5899 5899 5899 5899 5898 5898 5898 5897 5897 5896 5895 5895 5894 5894 5893 5893 5892 5892
5898 5898 5899 5899 5899 5899 5899 5899 5899 5900 5900 5901 5901 5902 5902 5902 5902 5902 5902 5902 5901 5900 5899 5899 5898 5897 5897 5897 5896 5896 5896 5895 5894 5894 5894 5893 5892 5892 5891 5891 5890 5889 5889
5897 5897 5897 5897 5897 5898 5898 5898 5898 5898 5899 5899 5900 5900 5901 5901 5901 5901 5900 5900 5899 5898 5897 5897 5896 5895 5894 5894 5893 5893 5893 5892 5892 5891 5890 5890 5889 5889 5888 5887 5887 5886 5885